Humidity-temperature Sensor

Selected Measurement Type: Air Temperature

 
Air Temperature [°C]     6 entries per hour
Showing data from 2/21/2017 (00:00:00 Z) to 2/20/2017 (00:01:00 Z)
Previous Next [ Day | 3-Days | 7-Days ]
First Last
Prev [ Day | 3-Days | 7-Days ] Next
First Last

Start Time:     :
End Time:     :     
Time (in GMT) :00 :50 :40 :30 :20 :10
Previous Next [ Day | 3-Days | 7-Days ]
First Last
Prev [ Day | 3-Days | 7-Days ] Next
First Last


123 => good data
MM => data is determined as missing
-- => data not received/configured
Back to Top Back to Top
2/21/2017 00:00 to 23:10 26.87 26.81 26.49 26.71 26.78 26.75
2/20/2017 23:00 to 22:10 26.62 26.63 26.61 26.67 26.54 26.57
2/20/2017 22:00 to 21:10 26.70 26.62 26.50 26.46 26.56 26.44
2/20/2017 21:00 to 20:10 26.44 26.55 26.57 26.43 26.41 26.43
2/20/2017 20:00 to 19:10 26.48 26.36 26.44 26.36 26.50 26.35
2/20/2017 19:00 to 18:10 26.42 26.47 26.52 26.45 26.38 26.45
2/20/2017 18:00 to 17:10 26.46 26.47 26.45 26.30 26.56 26.48
2/20/2017 17:00 to 16:10 26.52 26.35 26.31 26.14 26.21 26.55
2/20/2017 16:00 to 15:10 26.70 26.45 26.48 26.25 26.03 26.02
2/20/2017 15:00 to 14:10 26.09 26.04 25.97 25.96 25.80 25.82
2/20/2017 14:00 to 13:10 25.78 25.88 25.85 25.76 25.77 25.89
2/20/2017 13:00 to 12:10 25.71 25.81 25.81 25.83 25.82 25.88
2/20/2017 12:00 to 11:10 25.82 25.76 25.88 25.90 25.76 25.88
2/20/2017 11:00 to 10:10 25.81 25.80 25.79 25.79 25.86 25.86
2/20/2017 10:00 to 9:10 25.83 25.98 25.90 25.89 25.82 25.86
2/20/2017 09:00 to 8:10 25.90 25.95 25.93 25.88 25.99 25.99
2/20/2017 08:00 to 7:10 25.96 26.04 26.05 25.98 26.12 26.09
2/20/2017 07:00 to 6:10 26.08 26.04 26.13 26.11 26.25 26.12
2/20/2017 06:00 to 5:10 26.19 26.20 26.17 26.20 26.13 26.16
2/20/2017 05:00 to 4:10 26.18 26.16 26.13 26.17 26.19 26.19
2/20/2017 04:00 to 3:10 26.09 26.19 26.20 26.10 26.10 26.14
2/20/2017 03:00 to 2:10 26.02 26.07 26.06 26.18 26.15 26.36
2/20/2017 02:00 to 1:10 26.33 26.30 26.36 26.27 26.44 26.37
2/20/2017 01:00 to 0:10 26.30 26.23 26.22 26.29 26.21 26.21